Cliffside Park, New Jersey, United States (07010)
Lat: 40.82N, Lon: 73.99W
Wx Zone: NJZ104
Local Info
Past Weather Observations for Today

NOTE: This archive is for the closest National Weather Service station to Cliffside Park. Information may differ from the station used for current weather conditions.

Click here for Long-term Archive

Time Weather Temperature Dewpoint Humidity Pressure Winds Precip Visibility
18:51
Overcast
Fog And Mist
52°F / 11°C 48°F / 9°C 88% 29.86 in
(1011 mb)
Variable 4.6 mph
(Variable 7 kph)
- 3SM
18:47
Overcast
Fog And Mist
52°F / 11°C 48°F / 9°C 88% 29.86 in
(1011 mb)
E 4.6 mph
(E 7 kph)
- 3SM
18:34
Overcast
Fog And Mist
54°F / 12°C 50°F / 10°C 88% 29.86 in
(1011 mb)
E 4.6 mph
(E 7 kph)
- 2 1/2SM
17:51
Overcast
Fog And Mist
54°F / 12°C 48°F / 9°C 82% 29.86 in
(1011 mb)
ESE 6.9 mph
(ESE 11 kph)
- 6SM
17:04
Overcast
54°F / 12°C 48°F / 9°C 82% 29.86 in
(1011 mb)
ENE 4.6 mph
(ENE 7 kph)
- 10SM
16:51
Overcast
54°F / 12°C 48°F / 9°C 82% 29.83 in
(1010 mb)
E 8.1 mph
(E 13 kph)
- 10SM
15:51
Overcast
54°F / 12°C 48°F / 9°C 82% 29.83 in
(1010 mb)
ENE 9.2 mph
(ENE 15 kph)
- 10SM
14:51
Overcast
54°F / 12°C 48°F / 9°C 82% 29.83 in
(1010 mb)
NE 6.9 mph
(NE 11 kph)
- 10SM
14:26
Overcast
54°F / 12°C 48°F / 9°C 82% 29.83 in
(1010 mb)
ENE 9.2 mph
(ENE 15 kph)
- 9SM
13:51
Overcast
Fog And Mist
52°F / 11°C 48°F / 9°C 88% 29.83 in
(1010 mb)
ENE 10.4 mph
(ENE 17 kph)
- 4SM
12:51
Overcast
52°F / 11°C 48°F / 9°C 88% 29.86 in
(1011 mb)
E 8.1 mph
(E 13 kph)
- 8SM
11:51
Overcast
52°F / 11°C 48°F / 9°C 88% 29.86 in
(1011 mb)
ENE 10.4 mph
(ENE 17 kph)
- 8SM
10:51
Overcast
Fog And Mist
52°F / 11°C 50°F / 10°C 94% 29.89 in
(1012 mb)
E 8.1 mph
(E 13 kph)
0.01 in
(0.25 mm)
4SM
10:48
Overcast
Fog And Mist
52°F / 11°C 50°F / 10°C 94% 29.89 in
(1012 mb)
Variable 6.9 mph
(Variable 11 kph)
0.01 in
(0.25 mm)
4SM
10:10
Overcast
Light Rain
52°F / 11°C 48°F / 9°C 88% 29.89 in
(1012 mb)
E 9.2 mph
(E 15 kph)
0.00 in
(0.00 mm)
2SM
09:51
Overcast
Light Rain
52°F / 11°C 48°F / 9°C 88% 29.89 in
(1012 mb)
ENE 10.4 mph
(ENE 17 kph)
0.02 in
(0.51 mm)
1 3/4SM
09:13
Overcast
Light Rain
52°F / 11°C 50°F / 10°C 94% 29.89 in
(1012 mb)
E 6.9 mph
(E 11 kph)
0.01 in
(0.25 mm)
1 1/2SM
09:06
Overcast
Light Rain
52°F / 11°C 48°F / 9°C 88% 29.89 in
(1012 mb)
ENE 8.1 mph
(ENE 13 kph)
0.00 in
(0.00 mm)
2SM
08:51
Overcast
Light Rain
52°F / 11°C 48°F / 9°C 88% 29.89 in
(1012 mb)
E 8.1 mph
(E 13 kph)
0.02 in
(0.51 mm)
3SM
07:51
Overcast
Light Rain
52°F / 11°C 50°F / 10°C 94% 29.89 in
(1012 mb)
Variable 6.9 mph
(Variable 11 kph)
0.01 in
(0.25 mm)
5SM
06:51
Overcast
Light Rain
52°F / 11°C 50°F / 10°C 94% 29.92 in
(1013 mb)
Variable 6.9 mph
(Variable 11 kph)
0.01 in
(0.25 mm)
5SM
06:37
Overcast
Light Rain
52°F / 11°C 50°F / 10°C 94% 29.89 in
(1012 mb)
ENE 8.1 mph
(ENE 13 kph)
0.01 in
(0.25 mm)
6SM
05:51
Overcast
Light Rain
52°F / 11°C 50°F / 10°C 94% 29.92 in
(1013 mb)
Variable 5.8 mph
(Variable 9 kph)
0.11 in
(2.79 mm)
4SM
05:35
Overcast
Light Rain
52°F / 11°C 50°F / 10°C 94% 29.89 in
(1012 mb)
E 8.1 mph
(E 13 kph)
0.09 in
(2.29 mm)
6SM
05:26
Overcast
Light Rain
52°F / 11°C 50°F / 10°C 94% 29.92 in
(1013 mb)
Variable 3.5 mph
(Variable 6 kph)
0.09 in
(2.29 mm)
5SM
05:21
Overcast
Light Rain
52°F / 11°C 50°F / 10°C 94% 29.89 in
(1012 mb)
Variable 3.5 mph
(Variable 6 kph)
0.09 in
(2.29 mm)
5SM
05:05
Overcast
Rain
52°F / 11°C 50°F / 10°C 94% 29.89 in
(1012 mb)
ESE 4.6 mph
(ESE 7 kph)
0.05 in
(1.27 mm)
2SM
04:51
Overcast
Rain
52°F / 11°C 50°F / 10°C 94% 29.92 in
(1013 mb)
SE 5.8 mph
(SE 9 kph)
0.11 in
(2.79 mm)
2 1/2SM
04:19
Overcast
Light Rain
52°F / 11°C 52°F / 11°C 100% 29.89 in
(1012 mb)
Variable 4.6 mph
(Variable 7 kph)
0.05 in
(1.27 mm)
3SM
03:51
Overcast
Rain
54°F / 12°C 52°F / 11°C 94% 29.89 in
(1012 mb)
Variable 4.6 mph
(Variable 7 kph)
0.13 in
(3.30 mm)
2SM
03:32
Overcast
Rain
54°F / 12°C 52°F / 11°C 94% 29.89 in
(1012 mb)
Variable 3.5 mph
(Variable 6 kph)
0.08 in
(2.03 mm)
2SM
03:23
Overcast
Rain
54°F / 12°C 52°F / 11°C 94% 29.89 in
(1012 mb)
Variable 3.5 mph
(Variable 6 kph)
0.06 in
(1.52 mm)
1 3/4SM
02:51
Overcast
Light Rain
54°F / 12°C 52°F / 11°C 94% 29.89 in
(1012 mb)
ENE 4.6 mph
(ENE 7 kph)
0.08 in
(2.03 mm)
2 1/2SM
02:32
Overcast
Light Rain
54°F / 12°C 52°F / 11°C 94% 29.92 in
(1013 mb)
Calm 0.06 in
(1.52 mm)
2 1/2SM
02:12
Overcast
Rain
54°F / 12°C 52°F / 11°C 94% 29.92 in
(1013 mb)
Variable 4.6 mph
(Variable 7 kph)
0.04 in
(1.02 mm)
2SM
01:58
Overcast
Rain
54°F / 12°C 52°F / 11°C 94% 29.92 in
(1013 mb)
Variable 5.8 mph
(Variable 9 kph)
0.02 in
(0.51 mm)
2SM
01:51
Overcast
Light Rain
54°F / 12°C 52°F / 11°C 94% 29.92 in
(1013 mb)
Variable 3.5 mph
(Variable 6 kph)
0.07 in
(1.78 mm)
2 1/2SM
01:44
Overcast
Light Rain
54°F / 12°C 52°F / 11°C 94% 29.92 in
(1013 mb)
ESE 4.6 mph
(ESE 7 kph)
0.07 in
(1.78 mm)
3SM
01:34
Overcast
Light Rain
54°F / 12°C 52°F / 11°C 94% 29.92 in
(1013 mb)
E 3.5 mph
(E 6 kph)
0.06 in
(1.52 mm)
2SM
01:24
Overcast
Light Rain
54°F / 12°C 52°F / 11°C 94% 29.92 in
(1013 mb)
Calm 0.04 in
(1.02 mm)
2SM
01:11
Overcast
Light Rain
54°F / 12°C 52°F / 11°C 94% 29.92 in
(1013 mb)
NE 4.6 mph
(NE 7 kph)
0.03 in
(0.76 mm)
1 3/4SM
00:54
Overcast
Light Rain
54°F / 12°C 52°F / 11°C 94% 29.95 in
(1014 mb)
Calm 0.00 in
(0.00 mm)
2 1/2SM
00:51
Overcast
Light Rain
54°F / 12°C 52°F / 11°C 94% 29.95 in
(1014 mb)
Calm 0.04 in
(1.02 mm)
3SM
00:38
Overcast
Light Rain
54°F / 12°C 52°F / 11°C 94% 29.95 in
(1014 mb)
S 6.9 mph
(S 11 kph)
0.03 in
(0.76 mm)
3SM
00:27
Overcast
Light Rain
55°F / 13°C 54°F / 12°C 94% 29.95 in
(1014 mb)
SE 3.5 mph
(SE 6 kph)
0.03 in
(0.76 mm)
2 1/2SM
00:18
Overcast
Light Rain
55°F / 13°C 54°F / 12°C 94% 29.95 in
(1014 mb)
E 4.6 mph
(E 7 kph)
0.02 in
(0.51 mm)
3SM
Time Weather Temperature Dewpoint Humidity Pressure Winds Precip Visibility


Weather for websites

WeatherForYou.com, LLC is not responsible for any damages or problems caused by this service. Current weather conditions are obtained from the closest station including government and personal stations which may have varying degrees of accuracy. Weather forecasts are derived from the NOAA NDFD. Like all things, this site belongs to Jesus Christ... He just trusts us to maintain it. If you have any questions or comments email webmaster@weatherforyou.com

Copyright © 2016, WeatherForYou.com LLC. All rights reserved.